Location: Unspecified
(17.6330°N, 0.0000°E)
Time: 04:26:27
(UTC+00:00)

S-56A Canister/Altair - Pass Details

Date: 03 July 2019
Orbit: 633 x 2499 km, 38.9° (Epoch: 21 August)

Event Time Altitude Azimuth Distance (km) Brightness Sun altitude
Rises 09:16:22 0° 219° (SW) 5,785 11.7 50.4°
Reaches altitude 10° 09:19:59 10° 216° (SW) 4,930 11.4 51.2°
Maximum altitude 09:34:31 65° 138° (SE) 2,677 11.5 54.6°
Drops below altitude 10° 09:48:28 10° 61° (ENE) 4,770 12.3 57.8°
Sets 09:51:53 0° 58° (ENE) 5,596 12.4 58.6°
